This demonstration page uses our WeatherBlox Daily Observations layout. Learn more.

Left ArrowRight Arrow

31.84235, -102.49876

Hourly Observations for August 20, 2017

Temp ( °F °C ) Dew Point ( °F °C ) Humidity (%) Winds ( mph kmh ) Pressure ( in mb ) Visibility ( mi km ) Precip ( " mm )
12:53 am 00:53 Clear 80 26.7 61 16.1 52 52 S 6 9 29.90 1013 10 16 0.00 0.00
1:53 am 01:53 Clear 78 25.6 61 16.1 56 56 S 7 11 29.90 1012 10 16 0.00 0.00
2:53 am 02:53 Clear 77 25 62 16.7 60 60 S 6 9 29.88 1012 10 16 0.00 0.00
3:53 am 03:53 Clear 80 26.7 60 15.6 51 51 S 9 15 29.87 1011 10 16 0.00 0.00
4:53 am 04:53 Clear 78 25.6 60 15.6 54 54 S 6 9 29.88 1012 10 16 0.00 0.00
5:53 am 05:53 Clear 74 23.3 64 17.8 71 71 E 6 9 29.88 1012 10 16 0.00 0.00
6:53 am 06:53 Clear 73 22.8 65 18.3 76 76 ENE 3 6 29.89 1012 10 16 0.00 0.00
7:53 am 07:53 Sunny 77 25 62 16.7 60 60 S 9 15 29.91 1013 10 16 0.00 0.00
8:53 am 08:53 Sunny 77 25 63 17.2 62 62 S 9 15 29.92 1013 10 16 0.00 0.00
9:53 am 09:53 Sunny 81 27.2 65 18.3 58 58 S 16 26 29.93 1014 10 16 0.00 0.00
10:53 am 10:53 Sunny 85 29.4 65 18.3 51 51 S 12 19 29.92 1013 10 16 0.00 0.00
11:53 am 11:53 Sunny 89 31.7 63 17.2 42 42 S 14 22 29.91 1013 10 16 0.00 0.00
12:53 pm 12:53 Sunny 89 31.7 62 16.7 41 41 S 12 19 29.91 1013 10 16 0.00 0.00
1:53 pm 13:53 Sunny 93 33.9 58 14.4 31 31 SSW 8 13 29.89 1012 10 16 0.00 0.00
2:53 pm 14:53 Mostly Sunny 95 35 55 12.8 26 26 SE 13 20 29.87 1012 10 16 0.00 0.00
3:53 pm 15:53 Mostly Sunny 95 35 54 12.2 25 25 S 14 22 29.84 1011 10 16 0.00 0.00
4:53 pm 16:53 Mostly Sunny 93 33.9 54 12.2 27 27 S 12 19 29.83 1010 10 16 0.00 0.00
5:29 pm 17:29 Sunny 86 30 63 17.2 46 46 WSW 16 26 29.80 1009 10 16 0.00 0.00
5:53 pm 17:53 Sunny 85 29.4 64 17.8 50 50 W 14 22 29.85 1011 10 16 0.00 0.00
6:53 pm 18:53 Sunny 85 29.4 63 17.2 48 48 SW 3 6 29.87 1011 10 16 0.00 0.00
7:53 pm 19:53 Mostly Sunny 79 26.1 64 17.8 60 60 W 12 19 29.89 1012 10 16 0.00 0.00
8:53 pm 20:53 Clear 77 25 64 17.8 64 64 W 9 15 29.91 1013 10 16 0.00 0.00
9:53 pm 21:53 Clear 77 25 63 17.2 62 62 NW 6 9 29.92 1013 10 16 0.00 0.00
10:53 pm 22:53 Partly Cloudy 78 25.6 63 17.2 60 60 NW 3 6 29.94 1014 10 16 0.00 0.00
11:53 pm 23:53 Clear 77 25 64 17.8 64 64 E 5 7 29.95 1014 10 16 0.00 0.00

Powered by AerisWeather